Weather History for Minden, LA

Change the Weather History Date:

Monday, July 30, 2012

  Actual Average (KBAD) Record (KBAD)
Temperature  
Mean Temperature 88 °F -  
Max Temperature 100 °F 91 °F 102 °F (1998)
Min Temperature 77 °F 71 °F 66 °F (2014)
Cooling Degree Days 24    
Growing Degree Days 38 (Base 50)    
Moisture  
Dew Point 70 °F    
Average Humidity 56    
Maximum Humidity 83    
Minimum Humidity 31    
Precipitation  
Precipitation 0.00 in - - ()
Sea Level Pressure  
Sea Level Pressure 29.96 in    
Wind  
Wind Speed 3 mph ()    
Max Wind Speed 7 mph    
Max Gust Speed -    
Visibility 10.0 miles    
Events      
Averages and records for this station are not official NWS values.
T = Trace of Precipitation, MM = Missing Value Source: Averaged Metar Reports

Daily Weather History Graph

Daily Weather History Graph

Search for Another Location

Airport:

Trip Planner

Search our weather history database for the weather conditions in past years. The results will help you decide how hot, cold, wet, or windy it might be!

Date:

Astronomy

Jul. 30, 2012 Rise Set
Actual Time 6:26 AM CDT 8:12 PM CDT
Civil Twilight 5:59 AM CDT 8:39 PM CDT
Nautical Twilight 5:26 AM CDT 9:11 PM CDT
Astronomical Twilight 4:52 AM CDT 9:46 PM CDT
Moon 6:12 PM CDT (7/30) 3:45 AM CDT (7/30)
Length of Visible Light 14h 40m
Length of Day
13h 46m
Waxing Gibbous, 92% of the Moon is Illuminated
Jul 30
Waxing Gibbous
Aug 1
Full
Aug 9
Last Quarter
Aug 17
New
Aug 24
First Quarter

Hourly Weather History & Observations

Time (CDT) Temp. Heat Index Dew Point Humidity Pressure Visibility Wind Dir Wind Speed Gust Speed Precip Events Conditions
12:15 AM 86.0 °F 89.4 °F 68.0 °F 55% 29.97 in 10.0 mi SE 3.5 mph - N/A   Clear
12:35 AM 84.2 °F 87.3 °F 68.0 °F 58% 29.96 in 10.0 mi SE 3.5 mph - N/A   Clear
12:55 AM 84.2 °F 87.3 °F 68.0 °F 58% 29.96 in 10.0 mi SE 3.5 mph - N/A   Clear
1:15 AM 82.4 °F 85.4 °F 68.0 °F 62% 29.96 in 10.0 mi Calm Calm - N/A   Clear
1:35 AM 80.6 °F 83.2 °F 68.0 °F 65% 29.95 in 10.0 mi SSE 3.5 mph - N/A   Clear
1:55 AM 82.4 °F 86.3 °F 69.8 °F 66% 29.95 in 10.0 mi Calm Calm - N/A   Clear
2:15 AM 80.6 °F 83.9 °F 69.8 °F 70% 29.95 in 10.0 mi Calm Calm - N/A   Clear
2:35 AM 80.6 °F 83.9 °F 69.8 °F 70% 29.95 in 10.0 mi Calm Calm - N/A   Clear
2:55 AM 80.6 °F 83.9 °F 69.8 °F 70% 29.95 in 10.0 mi Calm Calm - N/A   Clear
3:15 AM 78.8 °F - 71.6 °F 78% 29.95 in 10.0 mi SSE 3.5 mph - N/A   Clear
3:55 AM 80.6 °F 84.6 °F 71.6 °F 74% 29.95 in 10.0 mi Calm Calm - N/A   Clear
4:15 AM 78.8 °F - 71.6 °F 78% 29.95 in 10.0 mi Calm Calm - N/A   Clear
4:35 AM 78.8 °F - 71.6 °F 78% 29.96 in 10.0 mi Calm Calm - N/A   Clear
4:55 AM 78.8 °F - 71.6 °F 78% 29.96 in 10.0 mi Calm Calm - N/A   Clear
5:15 AM 78.8 °F - 71.6 °F 78% 29.96 in 10.0 mi Calm Calm - N/A   Clear
5:35 AM 78.8 °F - 71.6 °F 78% 29.97 in 10.0 mi Calm Calm - N/A   Clear
5:55 AM 78.8 °F - 71.6 °F 78% 29.98 in 10.0 mi Calm Calm - N/A   Clear
6:15 AM 78.8 °F - 71.6 °F 78% 29.99 in 10.0 mi Calm Calm - N/A   Clear
6:35 AM 77.0 °F - 71.6 °F 83% 29.99 in 10.0 mi Calm Calm - N/A   Clear
6:55 AM 78.8 °F - 71.6 °F 78% 30.00 in 10.0 mi Calm Calm - N/A   Clear
7:15 AM 78.8 °F - 73.4 °F 83% 30.01 in 10.0 mi Calm Calm - N/A   Clear
7:35 AM 80.6 °F 85.4 °F 73.4 °F 79% 30.01 in 10.0 mi Calm Calm - N/A   Clear
7:55 AM 80.6 °F 85.4 °F 73.4 °F 79% 30.02 in 10.0 mi Calm Calm - N/A   Clear
8:15 AM 82.4 °F 88.2 °F 73.4 °F 74% 30.02 in 10.0 mi SW 3.5 mph - N/A   Clear
8:35 AM 84.2 °F 89.6 °F 71.6 °F 66% 30.03 in 10.0 mi SW 3.5 mph - N/A   Clear
9:15 AM 87.8 °F 93.8 °F 71.6 °F 58% 30.03 in 10.0 mi West 4.6 mph - N/A   Clear
9:35 AM 87.8 °F 93.8 °F 71.6 °F 58% 30.03 in 10.0 mi WNW 4.6 mph - N/A   Clear
9:55 AM 89.6 °F 96.2 °F 71.6 °F 55% 30.02 in 10.0 mi WNW 4.6 mph - N/A   Clear
10:15 AM 89.6 °F 96.2 °F 71.6 °F 55% 30.02 in 10.0 mi West 5.8 mph - N/A   Clear
10:35 AM 91.4 °F 98.4 °F 71.6 °F 52% 30.02 in 10.0 mi WNW 4.6 mph - N/A   Clear
10:55 AM 91.4 °F 98.4 °F 71.6 °F 52% 30.02 in 10.0 mi WNW 5.8 mph - N/A   Clear
11:15 AM 93.2 °F 100.5 °F 71.6 °F 49% 30.02 in 10.0 mi West 6.9 mph - N/A   Clear
11:35 AM 95.0 °F 101.3 °F 69.8 °F 44% 30.01 in 10.0 mi SW 6.9 mph - N/A   Clear
11:55 AM 95.0 °F 101.3 °F 69.8 °F 44% 30.01 in 10.0 mi West 4.6 mph - N/A   Clear
12:15 PM 95.0 °F 101.3 °F 69.8 °F 44% 30.00 in 10.0 mi Calm Calm - N/A   Clear
12:35 PM 96.8 °F 105.1 °F 71.6 °F 44% 29.99 in 10.0 mi WNW 3.5 mph - N/A   Clear
12:55 PM 98.6 °F 104.1 °F 68.0 °F 37% 29.99 in 10.0 mi WSW 6.9 mph - N/A   Clear
1:15 PM 98.6 °F 104.1 °F 68.0 °F 37% 29.98 in 10.0 mi SW 4.6 mph - N/A   Clear
1:35 PM 98.6 °F 104.1 °F 68.0 °F 37% 29.97 in 10.0 mi SW 6.9 mph - N/A   Clear
1:55 PM 98.6 °F 102.8 °F 66.2 °F 35% 29.97 in 10.0 mi South 6.9 mph - N/A   Clear
2:15 PM 100.4 °F 103.6 °F 64.4 °F 31% 29.96 in 10.0 mi SW 5.8 mph - N/A   Clear
2:35 PM 100.4 °F 106.3 °F 68.0 °F 35% 29.96 in 10.0 mi SW 3.5 mph - N/A   Clear
2:55 PM 100.4 °F 104.9 °F 66.2 °F 33% 29.95 in 10.0 mi West 3.5 mph - N/A   Clear
3:15 PM 100.4 °F 106.3 °F 68.0 °F 35% 29.94 in 10.0 mi SSW 4.6 mph - N/A   Clear
3:35 PM 100.4 °F 106.3 °F 68.0 °F 35% 29.93 in 10.0 mi SSE 4.6 mph - N/A   Clear
3:55 PM 100.4 °F 104.9 °F 66.2 °F 33% 29.93 in 10.0 mi Calm Calm - N/A   Clear
4:15 PM 100.4 °F 106.3 °F 68.0 °F 35% 29.92 in 10.0 mi South 4.6 mph - N/A   Clear
4:35 PM 100.4 °F 103.6 °F 64.4 °F 31% 29.91 in 10.0 mi Calm Calm - N/A   Clear
4:55 PM 100.4 °F 103.6 °F 64.4 °F 31% 29.91 in 10.0 mi Calm Calm - N/A   Clear
5:15 PM 100.4 °F 104.9 °F 66.2 °F 33% 29.90 in 10.0 mi South 4.6 mph - N/A   Clear
5:35 PM 100.4 °F 106.3 °F 68.0 °F 35% 29.90 in 10.0 mi SW 4.6 mph - N/A   Clear
6:15 PM 98.6 °F 105.5 °F 69.8 °F 39% 29.91 in 10.0 mi SSW 5.8 mph - N/A   Clear
6:35 PM 98.6 °F 105.5 °F 69.8 °F 39% 29.90 in 10.0 mi SSW 4.6 mph - N/A   Clear
6:55 PM 96.8 °F 103.1 °F 69.8 °F 41% 29.91 in 10.0 mi SSW 4.6 mph - N/A   Clear
7:15 PM 95.0 °F 101.3 °F 69.8 °F 44% 29.91 in 10.0 mi SSW 5.8 mph - N/A   Clear
7:35 PM 95.0 °F 101.3 °F 69.8 °F 44% 29.92 in 10.0 mi SSW 4.6 mph - N/A   Clear
7:55 PM 91.4 °F 98.4 °F 71.6 °F 52% 29.93 in 10.0 mi SSW 4.6 mph - N/A   Clear
8:15 PM 91.4 °F 98.4 °F 71.6 °F 52% 29.93 in 10.0 mi SSW 3.5 mph - N/A   Clear
8:35 PM 89.6 °F 96.2 °F 71.6 °F 55% 29.94 in 10.0 mi SSW 4.6 mph - N/A   Clear
8:55 PM 89.6 °F 96.2 °F 71.6 °F 55% 29.94 in 10.0 mi SSW 4.6 mph - N/A   Clear
9:15 PM 87.8 °F 93.8 °F 71.6 °F 58% 29.94 in 10.0 mi SSW 3.5 mph - N/A   Clear
9:35 PM 87.8 °F 93.8 °F 71.6 °F 58% 29.95 in 10.0 mi SSW 6.9 mph - N/A   Clear
9:55 PM 87.8 °F 93.8 °F 71.6 °F 58% 29.95 in 10.0 mi SSW 5.8 mph - N/A   Clear
10:15 PM 87.8 °F 93.8 °F 71.6 °F 58% 29.95 in 10.0 mi SSW 6.9 mph - N/A   Clear
10:35 PM 87.8 °F 93.8 °F 71.6 °F 58% 29.95 in 10.0 mi SSW 3.5 mph - N/A   Clear
10:55 PM 86.0 °F 91.8 °F 71.6 °F 62% 29.96 in 10.0 mi SSW 5.8 mph - N/A   Clear
11:35 PM 86.0 °F 91.8 °F 71.6 °F 62% 29.96 in 10.0 mi SSW 4.6 mph - N/A   Clear
11:55 PM 86.0 °F 91.8 °F 71.6 °F 62% 29.96 in 10.0 mi SSW 4.6 mph - N/A   Clear